GW7426 Weather Reports


Display with metric or nautical units.
time (UTC)temp
F
wind
direction
speed
MPH
gust
MPH
rain 1hr
in
rain 24hr
in
rain mn
in
humidity
%
barometer
mb
20260906233118 60 73 0.0 1.0 0.00 0.07 0.07 80 1016.3
20260906232618 60 73 0.0 1.0 0.00 0.07 0.07 80 1016.4
20260906231818 59 78 2.0 2.0 0.00 0.07 0.07 82 1016.3
20260906231318 59 68 1.0 2.0 0.00 0.07 0.07 82 1016.5
20260906230818 59 81 0.0 1.0 0.00 0.07 0.07 82 1016.6
20260906230318 59 110 0.0 0.0 0.00 0.07 0.07 83 1016.6
20260906225818 59 95 1.0 2.0 0.00 0.07 0.07 82 1016.6
20260906225218 59 113 1.0 2.0 0.00 0.07 0.07 84 1016.8
20260906224618 59 111 1.0 1.0 0.00 0.07 0.07 84 1016.9
20260906224117 59 111 0.0 2.0 0.00 0.07 0.07 85 1016.6
20260906223418 58 101 2.0 2.0 0.00 0.07 0.07 84 1016.8
20260906222717 58 88 0.0 2.0 0.00 0.07 0.07 86 1016.8
20260906222217 58 95 0.0 2.0 0.00 0.07 0.07 85 1016.6
20260906221617 58 89 2.0 2.0 0.00 0.07 0.07 85 1016.8
20260906221017 58 90 1.0 2.0 0.00 0.07 0.07 85 1017.0
20260906220419 58 89 1.0 1.0 0.00 0.07 0.07 85 1017.0
20260906215718 58 88 0.0 1.0 0.00 0.07 0.07 86 1017.0
20260906215119 58 65 1.0 2.0 0.00 0.07 0.07 86 1016.9
20260906214618 58 65 1.0 2.0 0.00 0.07 0.07 86 1017.0
20260906214018 58 65 0.0 1.0 0.00 0.07 0.07 87 1017.1
20260906213518 58 65 0.0 1.0 0.00 0.07 0.07 88 1016.9
20260906212920 58 64 0.0 0.0 0.00 0.07 0.07 89 1016.8
20260906212418 57 64 0.0 1.0 0.00 0.07 0.07 88 1017.1
20260906211818 57 64 0.0 1.0 0.00 0.07 0.07 89 1017.1
20260906211218 57 64 0.0 0.0 0.00 0.07 0.07 90 1017.1
20260906210719 57 64 1.0 1.0 0.00 0.07 0.07 91 1017.1
20260906210217 56 64 0.0 1.0 0.00 0.07 0.07 92 1017.1
20260906205617 56 64 0.0 0.0 0.00 0.07 0.07 92 1017.2
20260906205017 56 63 0.0 0.0 0.00 0.07 0.07 92 1017.2
20260906204517 56 64 0.0 0.0 0.00 0.07 0.07 92 1017.3
20260906203919 56 64 0.0 1.0 0.00 0.07 0.07 93 1017.1
20260906203417 56 41 0.0 1.0 0.00 0.07 0.07 93 1016.9
20260906202918 56 32 1.0 2.0 0.00 0.07 0.07 93 1017.3
20260906202418 56 80 1.0 1.0 0.00 0.07 0.07 95 1017.3
20260906201817 55 78 0.0 1.0 0.00 0.07 0.07 93 1017.2
20260906201218 55 77 0.0 0.0 0.00 0.07 0.07 93 1017.4
20260906200618 55 87 0.0 1.0 0.00 0.07 0.07 94 1017.4
20260906200117 55 87 0.0 0.0 0.00 0.07 0.07 96 1017.4
20260906195517 54 87 0.0 0.0 0.00 0.07 0.07 95 1017.3
20260906194917 55 89 0.0 1.0 0.00 0.07 0.07 94 1017.5
20260906194319 55 68 1.0 0.0 0.00 0.07 0.07 94 1017.5
20260906193717 55 67 0.0 1.0 0.01 0.07 0.07 94 1017.7
20260906193118 55 67 1.0 1.0 0.01 0.07 0.07 96 1017.7
20260906192618 55 67 0.0 1.0 0.01 0.07 0.07 96 1017.5
20260906192117 54 66 1.0 1.0 0.01 0.07 0.07 97 1017.9
20260906191617 54 40 0.0 0.0 0.01 0.07 0.07 98 1017.7
20260906191017 54 62 0.0 0.0 0.01 0.07 0.07 98 1017.7
20260906190517 53 70 1.0 1.0 0.01 0.07 0.07 98 1017.7
20260906185918 53 78 2.0 2.0 0.01 0.07 0.07 98 1017.7
20260906185318 53 70 0.0 1.0 0.01 0.07 0.07 98 1017.9
20260906184817 53 72 1.0 1.0 0.01 0.07 0.07 98 1017.9
20260906184218 53 71 1.0 1.0 0.01 0.06 0.06 98 1018.1
20260906183618 53 41 0.0 1.0 0.01 0.06 0.06 98 1018.2
20260906183117 52 40 1.0 1.0 0.01 0.06 0.06 98 1018.4
20260906182519 52 60 1.0 2.0 0.01 0.06 0.06 98 1018.0
20260906181919 52 61 0.0 0.0 0.01 0.06 0.06 98 1018.2
20260906181318 52 45 0.0 2.0 0.01 0.06 0.06 98 1018.1
20260906180818 52 339 0.0 1.0 0.01 0.06 0.06 97 1018.1
20260906180317 52 339 0.0 2.0 0.01 0.06 0.06 97 1018.2
20260906175718 52 339 0.0 0.0 0.01 0.06 0.06 98 1018.1
20260906175117 51 338 0.0 1.0 0.01 0.06 0.06 97 1018.2
20260906174617 51 339 0.0 1.0 0.00 0.05 0.05 97 1018.4
20260906174018 51 338 0.0 0.0 0.00 0.05 0.05 97 1018.3
20260906173519 51 338 1.0 1.0 0.00 0.05 0.05 97 1018.5
20260906172917 51 338 0.0 0.0 0.00 0.05 0.05 97 1018.4
20260906172317 51 338 1.0 1.0 0.00 0.05 0.05 96 1018.5
20260906171817 51 338 0.0 0.0 0.00 0.05 0.05 96 1018.6
20260906171217 51 338 0.0 0.0 0.00 0.05 0.05 96 1018.6
20260906170718 50 338 0.0 0.0 0.00 0.05 0.05 96 1018.7
20260906170120 50 338 0.0 0.0 0.00 0.05 0.05 95 1018.6
20260906164318 50 338 0.0 0.0 0.00 0.05 0.05 96 1018.9
20260906163718 50 338 0.0 0.0 0.00 0.05 0.05 96 1019.1
20260906154119 48 338 0.0 0.0 0.00 0.05 0.05 96 1019.2
20260906153418 48 338 0.0 0.0 0.00 0.05 0.05 96 1019.4
20260906152918 48 338 0.0 0.0 0.00 0.05 0.05 97 1019.3
20260906152318 48 329 1.0 1.0 0.00 0.05 0.05 97 1019.3
20260906151718 48 329 1.0 1.0 0.00 0.05 0.05 97 1019.2
20260906151118 48 277 1.0 2.0 0.00 0.05 0.05 97 1019.0
20260906150518 48 323 2.0 3.0 0.00 0.05 0.05 97 1019.0
20260906150018 48 318 2.0 2.0 0.00 0.05 0.05 96 1019.0
20260906145417 49 354 1.0 1.0 0.00 0.05 0.05 97 1019.0
20260906144918 49 354 1.0 1.0 0.00 0.05 0.05 97 1019.1
20260906144418 49 2 1.0 0.0 0.00 0.05 0.05 97 1019.2
20260906143817 49 42 0.0 0.0 0.00 0.05 0.05 97 1019.0
20260906143217 48 43 0.0 0.0 0.00 0.05 0.05 98 1019.3
20260906142718 48 43 0.0 0.0 0.00 0.05 0.05 98 1019.0
20260906142118 48 43 0.0 0.0 0.00 0.05 0.05 98 1019.0
20260906141417 48 48 0.0 0.0 0.00 0.05 0.05 98 1019.2
20260906140717 48 353 0.0 0.0 0.00 0.05 0.05 98 1019.3
20260906135918 48 353 0.0 0.0 0.00 0.05 0.05 98 1019.3
20260906133818 48 330 1.0 1.0 0.01 0.05 0.05 99 1019.4
20260906133218 48 330 1.0 1.0 0.01 0.05 0.05 99 1019.3
20260906132718 48 330 0.0 0.0 0.01 0.05 0.05 99 1019.4
20260906132218 48 330 0.0 0.0 0.02 0.05 0.05 99 1019.3
20260906131618 48 330 0.0 0.0 0.02 0.05 0.05 98 1019.4
20260906131018 48 330 0.0 0.0 0.02 0.05 0.05 98 1019.5
20260906130518 48 330 0.0 0.0 0.02 0.05 0.05 98 1019.6
20260906130018 48 330 0.0 0.0 0.02 0.05 0.05 98 1019.4
20260906125518 48 330 0.0 1.0 0.03 0.05 0.05 98 1019.4
20260906125018 48 330 0.0 0.0 0.04 0.05 0.05 98 1019.4
20260906124419 48 330 0.0 0.0 0.04 0.05 0.05 98 1019.6
20260906123818 48 330 0.0 0.0 0.04 0.04 0.04 98 1019.8
20260906123318 47 330 0.0 0.0 0.04 0.04 0.04 98 1020.1
20260906122718 47 330 0.0 0.0 0.04 0.04 0.04 98 1019.9
20260906122018 47 330 0.0 0.0 0.03 0.03 0.03 97 1020.1
20260906121418 47 330 0.0 1.0 0.03 0.03 0.03 97 1020.0
20260906120818 48 330 0.0 2.0 0.03 0.03 0.03 97 1020.0
20260906120318 48 329 1.0 2.0 0.03 0.03 0.03 97 1019.9
20260906115817 48 331 1.0 1.0 0.02 0.02 0.02 97 1020.4
20260906115018 48 332 0.0 0.0 0.01 0.01 0.01 97 1020.5
20260906114518 48 332 0.0 0.0 0.01 0.01 0.01 97 1020.7
20260906113817 48 332 0.0 0.0 0.00 0.00 0.00 97 1020.7
20260906111418 48 332 0.0 0.0 0.00 0.00 0.00 97 1020.7
20260906110818 48 332 0.0 0.0 0.00 0.00 0.00 97 1021.0
20260906110317 48 332 0.0 0.0 0.00 0.00 0.00 97 1021.0
20260906104917 48 332 0.0 0.0 0.00 0.00 0.00 97 1020.8
20260906104317 48 332 0.0 0.0 0.00 0.00 0.00 97 1021.1
20260906103617 48 336 0.0 0.0 0.00 0.00 0.00 98 1020.8
20260906103117 48 336 0.0 0.0 0.00 0.00 0.00 98 1020.7
20260906102517 48 328 2.0 2.0 0.00 0.00 0.00 98 1021.0
20260906102017 48 328 2.0 2.0 0.00 0.00 0.00 98 1020.5
20260906101417 48 343 0.0 0.0 0.00 0.00 0.00 99 1020.7
20260906100817 48 343 0.0 0.0 0.00 0.00 0.00 99 1020.5
20260906100218 48 343 0.0 0.0 0.00 0.00 0.00 99 1020.7
20260906095618 48 343 0.0 0.0 0.00 0.00 0.00 99 1020.7
20260906095117 48 343 1.0 1.0 0.00 0.00 0.00 99 1020.5
20260906094517 48 343 1.0 1.0 0.00 0.00 0.00 99 1020.7
20260906094017 49 340 0.0 0.0 0.00 0.00 0.00 99 1020.8
20260906093418 49 340 0.0 0.0 0.00 0.00 0.00 99 1021.3
20260906092817 49 340 0.0 1.0 0.00 0.00 0.00 99 1021.1
20260906092318 49 343 0.0 0.0 0.00 0.00 0.00 99 1021.0
20260906090518 49 343 0.0 0.0 0.00 0.00 0.00 99 1021.1
20260906085918 49 343 0.0 0.0 0.00 0.00 0.00 99 1021.1
20260906080317 49 343 0.0 0.0 0.00 0.00 0.00 98 1022.0
20260906075718 49 343 0.0 0.0 0.00 0.00 0.00 98 1022.0
20260906075117 49 343 0.0 0.0 0.00 0.00 0.00 98 1021.9
20260906074417 49 343 0.0 0.0 0.00 0.00 0.00 97 1021.9
20260906073917 49 343 0.0 0.0 0.00 0.00 0.00 97 1021.9
20260906073319 49 343 0.0 0.0 0.00 0.00 0.00 97 1021.7
20260906072818 49 343 0.0 0.0 0.00 0.00 0.00 97 1021.7
20260906072218 49 344 0.0 0.0 0.00 0.00 0.00 97 1021.7
20260906071618 49 344 0.0 0.0 0.00 0.00 0.00 97 1022.1
20260906071118 50 343 0.0 0.0 0.00 0.00 0.00 97 1022.1
20260906070318 50 344 0.0 0.0 0.00 0.00 0.00 97 1022.1
20260906065618 50 343 0.0 0.0 0.00 0.00 0.00 97 1022.2
20260906065118 50 343 0.0 0.0 0.00 0.00 0.00 97 1022.2
20260906064618 50 343 0.0 0.0 0.00 0.00 0.00 97 1022.2
20260906063918 50 343 0.0 0.0 0.00 0.00 0.00 97 1022.3
20260906063419 50 343 0.0 0.0 0.00 0.00 0.00 97 1022.2
20260906062918 50 343 0.0 0.0 0.00 0.00 0.00 97 1022.1
20260906062318 50 343 0.0 0.0 0.00 0.00 0.00 96 1022.2
20260906061720 50 348 1.0 1.0 0.00 0.00 0.00 96 1022.1
20260906061118 50 348 0.0 0.0 0.00 0.00 0.00 95 1022.3
20260906060618 50 348 0.0 0.0 0.00 0.00 0.00 95 1022.3
20260906060118 50 348 0.0 0.0 0.00 0.00 0.00 95 1022.3
20260906055518 50 348 0.0 0.0 0.00 0.20 0.20 95 1022.1
20260906055017 50 349 0.0 0.0 0.00 0.20 0.20 96 1022.1
20260906054519 50 349 1.0 1.0 0.00 0.20 0.20 96 1022.1
20260906053919 50 351 0.0 1.0 0.00 0.20 0.20 96 1022.1
20260906053317 50 351 1.0 1.0 0.00 0.20 0.20 96 1022.2
20260906052818 50 337 1.0 1.0 0.00 0.20 0.20 96 1022.3
20260906052218 50 356 1.0 1.0 0.00 0.20 0.20 97 1022.3
20260906051617 50 8 1.0 1.0 0.00 0.20 0.20 97 1022.4
20260906050918 50 278 2.0 2.0 0.00 0.20 0.20 97 1022.2
20260906050318 50 339 1.0 1.0 0.00 0.20 0.20 97 1022.2
20260906045818 50 339 1.0 1.0 0.00 0.20 0.20 97 1022.4
20260906045218 50 349 0.0 0.0 0.00 0.20 0.20 97 1022.3
20260906044519 50 352 0.0 0.0 0.00 0.20 0.20 97 1022.1
20260906044018 50 359 0.0 1.0 0.00 0.20 0.20 98 1022.4
20260906043518 50 3 0.0 0.0 0.00 0.20 0.20 98 1022.5
20260906042918 50 4 0.0 0.0 0.00 0.20 0.20 98 1022.3
20260906042418 50 4 0.0 0.0 0.00 0.20 0.20 98 1022.2
20260906041818 50 4 0.0 0.0 0.00 0.20 0.20 98 1022.5
20260906041218 50 4 0.0 0.0 0.00 0.20 0.20 97 1022.3
20260906040518 50 4 0.0 0.0 0.00 0.20 0.20 97 1022.2
20260906035918 50 4 0.0 0.0 0.00 0.20 0.20 97 1022.4
20260906035418 50 4 0.0 0.0 0.00 0.20 0.20 97 1022.3
20260906034818 50 4 0.0 0.0 0.00 0.20 0.20 97 1022.3
20260906034218 50 4 0.0 0.0 0.00 0.20 0.20 97 1022.1
20260906033718 50 4 0.0 0.0 0.00 0.20 0.20 97 1022.1
20260906033118 50 4 0.0 0.0 0.00 0.20 0.20 97 1022.0
20260906032518 50 4 0.0 0.0 0.00 0.20 0.20 97 1021.7
20260906032019 50 4 0.0 0.0 0.00 0.20 0.20 97 1021.7
20260906031420 50 4 0.0 0.0 0.00 0.20 0.20 97 1021.5
20260906030818 50 4 0.0 1.0 0.00 0.20 0.20 97 1021.5
20260906030118 50 4 0.0 0.0 0.00 0.20 0.20 97 1021.5
20260906025618 50 4 0.0 0.0 0.00 0.20 0.20 97 1021.4
20260906025118 50 4 0.0 0.0 0.00 0.20 0.20 97 1021.5
20260906024518 50 3 1.0 1.0 0.00 0.20 0.20 97 1021.4
20260906024018 50 4 1.0 1.0 0.00 0.20 0.20 97 1021.2
20260906023518 50 4 0.0 1.0 0.01 0.20 0.20 97 1021.3
20260906022820 50 3 1.0 1.0 0.01 0.20 0.20 97 1021.4
20260906022218 50 4 0.0 1.0 0.01 0.20 0.20 97 1021.4
20260906021619 50 0 2.0 2.0 0.01 0.20 0.20 97 1021.5
20260906021018 50 4 0.0 1.0 0.01 0.20 0.20 97 1021.3
20260906020518 50 4 1.0 1.0 0.01 0.20 0.20 97 1021.5
20260906020018 50 4 0.0 1.0 0.01 0.20 0.20 97 1021.4
20260906015418 50 4 1.0 1.0 0.01 0.20 0.20 96 1021.4
20260906014818 50 5 0.0 1.0 0.01 0.20 0.20 96 1021.5
20260906014318 50 5 0.0 1.0 0.01 0.20 0.20 96 1021.6
20260906013818 50 4 1.0 1.0 0.00 0.19 0.19 96 1021.7
20260906013218 50 5 1.0 1.0 0.00 0.19 0.19 96 1021.5
20260906012618 50 6 0.0 0.0 0.00 0.19 0.19 96 1021.6
20260906012118 50 6 1.0 0.0 0.00 0.19 0.19 96 1021.6
20260906011518 50 6 1.0 2.0 0.00 0.19 0.19 95 1021.5
20260906010918 50 5 2.0 3.0 0.01 0.19 0.19 96 1021.4
20260906010218 50 23 0.0 1.0 0.01 0.19 0.19 96 1021.6
20260906005517 51 12 2.0 2.0 0.01 0.19 0.19 96 1021.5
20260906004917 50 24 0.0 1.0 0.02 0.19 0.19 96 1021.4
20260906004417 50 33 0.0 1.0 0.02 0.19 0.19 95 1021.3
20260906003918 51 28 1.0 2.0 0.02 0.19 0.19 95 1021.3
20260906003317 51 1 0.0 1.0 0.03 0.19 0.19 95 1021.5
20260906002618 51 1 1.0 2.0 0.03 0.19 0.19 95 1021.3
20260906002117 51 1 0.0 1.0 0.03 0.19 0.19 95 1021.4
20260906001517 51 15 0.0 2.0 0.03 0.19 0.19 96 1021.4
20260906001018 51 50 1.0 1.0 0.02 0.18 0.18 96 1021.3
20260906000418 51 36 0.0 1.0 0.02 0.18 0.18 96 1021.4
20260905235918 50 348 1.0 3.0 0.02 0.18 0.18 96 1021.5
20260905235317 50 10 0.0 2.0 0.02 0.18 0.18 96 1021.0
20260905234617 50 21 0.0 1.0 0.02 0.17 0.17 96 1021.5
20260905234018 50 21 1.0 2.0 0.02 0.17 0.17 96 1021.4
20260905233518 50 21 1.0 1.0 0.01 0.16 0.16 95 1021.6